QPF
0.00 0.00 0.00 0.00 0.00 0.00 0.00 0.00 0.01 0.00 0.00 0.00 0.00 0.00 0.00 0.00 0.01 0.01 0.01 0.00 0.00 0.01 0.00 0.00 0.00 0.00 0.00 0.01 0.01 0.01 0.03 0.04 0.05 0.04 0.03 0.03 0.03 0.02 0.02 0.02 0.03 0.03 0.03 0.04
0.00 0.00 0.00 0.00 0.00 0.00 0.00 0.00 0.00 0.00 0.00 0.00 0.00 0.00 0.00 0.00 0.00 0.01 0.01 0.00 0.00 0.00 0.01 0.00 0.00 0.00 0.00 0.01 0.01 0.01 0.01 0.03 0.04 0.04 0.05 0.04 0.03 0.03 0.03 0.02 0.02 0.02 0.02 0.05
0.00 0.00 0.00 0.00 0.00 0.00 0.00 0.00 0.00 0.00 0.00 0.00 0.00 0.00 0.00 0.00 0.00 0.00 0.00 0.00 0.00 0.00 0.01 0.00 0.00 0.01 0.01 0.01 0.00 0.00 0.01 0.02 0.03 0.05 0.05 0.04 0.03 0.03 0.02 0.03 0.03 0.03 0.02 0.05
0.00 0.00 0.00 0.00 0.00 0.00 0.00 0.00 0.00 0.00 0.00 0.01 0.00 0.01 0.00 0.00 0.00 0.00 0.00 0.00 0.00 0.01 0.01 0.01 0.01 0.00 0.00 0.00 0.00 0.01 0.02 0.02 0.03 0.03 0.03 0.04 0.03 0.03 0.03 0.03 0.03 0.02 0.02 0.03
0.00 0.00 0.00 0.00 0.00 0.00 0.00 0.00 0.00 0.00 0.00 0.00 0.00 0.00 0.00 0.00 0.00 0.00 0.00 0.00 0.00 0.01 0.01 0.01 0.01 0.00 0.00 0.00 0.00 0.01 0.02 0.02 0.02 0.03 0.02 0.03 0.02 0.02 0.03 0.03 0.03 0.04 0.03 0.03
0.00 0.00 0.00 0.00 0.00 0.00 0.00 0.00 0.00 0.00 0.00 0.00 0.00 0.00 0.00 0.00 0.00 0.00 0.00 0.00 0.00 0.00 0.00 0.01 0.00 0.00 0.00 0.00 0.01 0.01 0.01 0.01 0.01 0.02 0.02 0.02 0.02 0.02 0.02 0.03 0.04 0.04 0.04 0.04
0.00 0.00 0.00 0.00 0.00 0.00 0.00 0.00 0.00 0.00 0.00 0.00 0.00 0.00 0.00 0.00 0.00 0.00 0.00 0.00 0.00 0.00 0.00 0.00 0.00 0.00 0.00 0.00 0.00 0.00 0.01 0.01 0.01 0.01 0.01 0.01 0.02 0.02 0.02 0.03 0.03 0.04 0.04 0.04
0.00 0.00 0.00 0.00 0.00 0.00 0.00 0.00 0.00 0.00 0.00 0.00 0.00 0.00 0.00 0.00 0.00 0.00 0.00 0.00 0.00 0.00 0.00 0.00 0.00 0.00 0.01 0.01 0.00 0.00 0.01 0.01 0.01 0.02 0.02 0.01 0.01 0.01 0.02 0.02 0.02 0.03 0.03 0.03
0.00 0.00 0.00 0.00 0.00 0.00 0.00 0.00 0.00 0.00 0.00 0.00 0.00 0.00 0.00 0.00 0.00 0.00 0.00 0.00 0.00 0.00 0.00 0.00 0.00 0.00 0.00 0.00 0.00 0.00 0.01 0.01 0.01 0.01 0.02 0.02 0.02 0.01 0.02 0.02 0.02 0.02 0.03 0.02
0.00 0.00 0.00 0.00 0.00 0.00 0.00 0.00 0.00 0.00 0.00 0.00 0.00 0.00 0.00 0.00 0.00 0.00 0.00 0.00 0.00 0.00 0.00 0.00 0.00 0.00 0.00 0.00 0.00 0.00 0.00 0.00 0.01 0.01 0.01 0.01 0.01 0.01 0.01 0.02 0.02 0.02 0.02 0.03
0.00 0.00 0.00 0.00 0.00 0.00 0.00 0.00 0.00 0.00 0.00 0.00 0.00 0.00 0.00 0.00 0.00 0.00 0.00 0.00 0.00 0.00 0.00 0.00 0.00 0.00 0.00 0.00 0.00 0.00 0.00 0.00 0.00 0.01 0.01 0.01 0.01 0.02 0.02 0.02 0.02 0.02 0.01 0.02
0.00 0.00 0.00 0.00 0.00 0.00 0.00 0.00 0.00 0.00 0.00 0.00 0.00 0.00 0.00 0.00 0.00 0.00 0.00 0.00 0.00 0.00 0.00 0.00 0.00 0.00 0.00 0.00 0.00 0.00 0.00 0.00 0.00 0.01 0.01 0.01 0.01 0.02 0.02 0.02 0.02 0.02 0.02 0.02
0.00 0.00 0.00 0.00 0.00 0.00 0.00 0.00 0.00 0.00 0.00 0.00 0.00 0.00 0.00 0.00 0.00 0.00 0.00 0.00 0.00 0.00 0.00 0.00 0.00 0.00 0.00 0.00 0.00 0.01 0.01 0.00 0.01 0.01 0.02 0.02 0.02 0.03 0.02 0.03 0.03 0.03 0.05 0.05
0.00 0.00 0.00 0.00 0.00 0.00 0.00 0.00 0.00 0.00 0.00 0.00 0.00 0.00 0.00 0.00 0.00 0.00 0.00 0.00 0.00 0.00 0.00 0.00 0.00 0.00 0.00 0.00 0.00 0.01 0.01 0.01 0.01 0.01 0.02 0.02 0.04 0.03 0.02 0.03 0.02 0.03 0.04 0.05
0.00 0.00 0.00 0.00 0.00 0.00 0.00 0.00 0.00 0.00 0.00 0.00 0.00 0.00 0.00 0.00 0.00 0.00 0.00 0.00 0.00 0.00 0.00 0.00 0.01 0.01 0.01 0.01 0.01 0.02 0.02 0.01 0.01 0.01 0.01 0.01 0.01 0.01 0.01 0.02 0.01 0.01 0.01 0.02
0.00 0.00 0.00 0.00 0.00 0.00 0.00 0.00 0.00 0.00 0.00 0.00 0.00 0.00 0.00 0.00 0.00 0.00 0.00 0.00 0.00 0.00 0.00 0.01 0.02 0.02 0.03 0.03 0.03 0.02 0.01 0.01 0.01 0.01 0.01 0.00 0.00 0.00 0.01 0.01 0.01 0.01 0.01 0.01
0.00 0.00 0.00 0.00 0.00 0.00 0.00 0.00 0.00 0.00 0.00 0.00 0.00 0.00 0.00 0.00 0.00 0.00 0.00 0.01 0.01 0.01 0.00 0.01 0.01 0.02 0.02 0.02 0.02 0.01 0.00 0.01 0.01 0.01 0.00 0.00 0.00 0.01 0.01 0.01 0.01 0.01 0.01 0.01
0.00 0.00 0.00 0.00 0.00 0.00 0.00 0.00 0.00 0.00 0.00 0.00 0.00 0.00 0.00 0.00 0.00 0.01 0.02 0.02 0.01 0.01 0.00 0.00 0.00 0.00 0.00 0.00 0.00 0.01 0.01 0.01 0.01 0.01 0.00 0.01 0.01 0.02 0.03 0.03 0.02 0.01 0.01 0.01
0.00 0.00 0.00 0.00 0.00 0.00 0.00 0.00 0.00 0.00 0.00 0.00 0.00 0.00 0.00 0.00 0.01 0.02 0.02 0.01 0.00 0.00 0.00 0.00 0.00 0.00 0.00 0.00 0.01 0.01 0.01 0.02 0.02 0.01 0.01 0.01 0.03 0.04 0.05 0.05 0.04 0.03 0.03 0.03
0.00 0.00 0.00 0.00 0.00 0.00 0.00 0.00 0.00 0.00 0.01 0.00 0.01 0.01 0.01 0.01 0.02 0.01 0.01 0.01 0.00 0.00 0.00 0.00 0.00 0.01 0.01 0.01 0.01 0.02 0.02 0.02 0.02 0.02 0.01 0.02 0.04 0.05 0.05 0.05 0.04 0.04 0.04 0.03
0.00 0.00 0.00 0.00 0.00 0.00 0.00 0.00 0.00 0.01 0.01 0.01 0.01 0.01 0.01 0.01 0.01 0.01 0.01 0.00 0.00 0.00 0.00 0.01 0.01 0.01 0.01 0.01 0.01 0.01 0.02 0.02 0.02 0.02 0.01 0.02 0.02 0.02 0.02 0.02 0.03 0.03 0.03 0.03
0.00 0.00 0.00 0.00 0.00 0.00 0.00 0.00 0.01 0.01 0.01 0.01 0.01 0.01 0.00 0.00 0.01 0.00 0.00 0.00 0.01 0.01 0.01 0.01 0.01 0.01 0.01 0.01 0.01 0.01 0.01 0.02 0.02 0.01 0.01 0.01 0.01 0.01 0.01 0.01 0.02 0.03 0.03 0.02
0.00 0.01 0.01 0.01 0.00 0.00 0.00 0.00 0.00 0.00 0.01 0.01 0.01 0.01 0.00 0.00 0.00 0.00 0.01 0.01 0.01 0.01 0.01 0.01 0.01 0.01 0.01 0.01 0.01 0.01 0.02 0.02 0.01 0.01 0.01 0.01 0.02 0.02 0.02 0.02 0.02 0.03 0.02 0.02
0.00 0.00 0.01 0.01 0.00 0.00 0.00 0.00 0.00 0.00 0.01 0.01 0.01 0.01 0.01 0.01 0.01 0.02 0.03 0.02 0.03 0.03 0.02 0.02 0.01 0.01 0.01 0.01 0.01 0.01 0.02 0.01 0.01 0.01 0.01 0.02 0.02 0.02 0.02 0.02 0.02 0.02 0.02 0.02
0.00 0.00 0.00 0.00 0.00 0.00 0.00 0.00 0.01 0.00 0.00 0.00 0.01 0.02 0.01 0.01 0.02 0.02 0.03 0.02 0.02 0.03 0.02 0.02 0.02 0.02 0.02 0.01 0.01 0.01 0.01 0.01 0.01 0.01 0.02 0.02 0.03 0.02 0.02 0.02 0.02 0.02 0.02 0.02
0.00 0.00 0.00 0.00 0.00 0.00 0.00 0.00 0.00 0.01 0.00 0.00 0.02 0.03 0.02 0.01 0.02 0.02 0.03 0.03 0.02 0.02 0.03 0.03 0.02 0.02 0.01 0.01 0.01 0.01 0.01 0.01 0.01 0.01 0.02 0.02 0.02 0.02 0.03 0.03 0.04 0.04 0.04 0.04
MSLP
1008.75 1009.04 1009.21 1009.27 1009.27 1009.24 1009.23 1009.25 1009.31 1009.40 1009.50 1009.59 1009.65 1009.68 1009.67 1009.64 1009.62 1009.60 1009.61 1009.65 1009.70 1009.76 1009.84 1009.94 1010.08 1010.27 1010.53 1010.88 1011.29 1011.77 1012.25 1012.71 1013.09 1013.37 1013.53 1013.59 1013.59 1013.56 1013.55 1013.60 1013.72 1013.91 1014.14 1014.37
1009.07 1009.25 1009.32 1009.31 1009.27 1009.25 1009.28 1009.37 1009.50 1009.64 1009.76 1009.82 1009.81 1009.72 1009.58 1009.41 1009.25 1009.13 1009.07 1009.07 1009.12 1009.21 1009.33 1009.47 1009.65 1009.87 1010.15 1010.51 1010.95 1011.45 1011.97 1012.47 1012.91 1013.24 1013.45 1013.54 1013.54 1013.48 1013.43 1013.41 1013.46 1013.58 1013.75 1013.95
1009.37 1009.44 1009.42 1009.35 1009.30 1009.32 1009.41 1009.58 1009.80 1009.99 1010.12 1010.14 1010.02 1009.78 1009.46 1009.11 1008.77 1008.52 1008.36 1008.31 1008.36 1008.48 1008.66 1008.86 1009.09 1009.35 1009.66 1010.04 1010.49 1011.00 1011.56 1012.11 1012.60 1013.00 1013.27 1013.40 1013.43 1013.37 1013.29 1013.22 1013.20 1013.25 1013.35 1013.48
1009.57 1009.55 1009.47 1009.37 1009.34 1009.42 1009.61 1009.89 1010.20 1010.45 1010.59 1010.54 1010.30 1009.89 1009.35 1008.77 1008.23 1007.80 1007.52 1007.41 1007.45 1007.61 1007.84 1008.11 1008.41 1008.72 1009.05 1009.44 1009.90 1010.42 1010.99 1011.57 1012.12 1012.58 1012.93 1013.14 1013.22 1013.19 1013.11 1013.01 1012.94 1012.92 1012.95 1013.01
1009.62 1009.53 1009.41 1009.32 1009.34 1009.51 1009.82 1010.22 1010.64 1010.96 1011.10 1011.00 1010.63 1010.02 1009.26 1008.44 1007.68 1007.06 1006.65 1006.46 1006.49 1006.67 1006.97 1007.31 1007.66 1008.02 1008.37 1008.76 1009.20 1009.70 1010.26 1010.86 1011.45 1011.98 1012.42 1012.72 1012.88 1012.92 1012.88 1012.78 1012.68 1012.61 1012.58 1012.58
1009.46 1009.33 1009.19 1009.13 1009.22 1009.50 1009.95 1010.50 1011.03 1011.43 1011.59 1011.43 1010.95 1010.17 1009.20 1008.16 1007.18 1006.39 1005.85 1005.59 1005.59 1005.80 1006.14 1006.55 1006.95 1007.33 1007.69 1008.06 1008.45 1008.91 1009.44 1010.03 1010.64 1011.23 1011.75 1012.16 1012.43 1012.57 1012.59 1012.53 1012.44 1012.34 1012.27 1012.22
1009.12 1008.95 1008.81 1008.79 1008.96 1009.35 1009.93 1010.61 1011.26 1011.74 1011.93 1011.75 1011.19 1010.29 1009.16 1007.94 1006.79 1005.85 1005.20 1004.89 1004.87 1005.10 1005.49 1005.94 1006.38 1006.77 1007.11 1007.42 1007.75 1008.13 1008.60 1009.16 1009.77 1010.40 1011.00 1011.52 1011.91 1012.16 1012.28 1012.29 1012.23 1012.14 1012.05 1011.98
1008.66 1008.46 1008.32 1008.33 1008.57 1009.04 1009.72 1010.51 1011.26 1011.81 1012.05 1011.88 1011.28 1010.31 1009.09 1007.76 1006.52 1005.49 1004.78 1004.43 1004.42 1004.67 1005.09 1005.57 1006.03 1006.41 1006.71 1006.96 1007.20 1007.49 1007.87 1008.37 1008.96 1009.61 1010.27 1010.87 1011.38 1011.75 1011.98 1012.09 1012.09 1012.04 1011.97 1011.90
1008.24 1008.00 1007.84 1007.85 1008.10 1008.62 1009.34 1010.18 1010.99 1011.60 1011.87 1011.73 1011.15 1010.18 1008.94 1007.60 1006.33 1005.28 1004.57 1004.23 1004.24 1004.52 1004.97 1005.48 1005.94 1006.31 1006.56 1006.74 1006.89 1007.08 1007.36 1007.78 1008.32 1008.97 1009.66 1010.33 1010.94 1011.42 1011.76 1011.97 1012.06 1012.07 1012.04 1011.99
1008.01 1007.72 1007.50 1007.47 1007.68 1008.16 1008.85 1009.68 1010.48 1011.09 1011.39 1011.29 1010.75 1009.84 1008.66 1007.38 1006.16 1005.17 1004.51 1004.22 1004.28 1004.61 1005.10 1005.63 1006.10 1006.46 1006.68 1006.79 1006.86 1006.96 1007.15 1007.49 1007.97 1008.59 1009.28 1010.00 1010.67 1011.23 1011.67 1011.97 1012.15 1012.23 1012.26 1012.26
1008.11 1007.74 1007.44 1007.31 1007.41 1007.77 1008.35 1009.06 1009.78 1010.34 1010.63 1010.55 1010.07 1009.25 1008.18 1007.02 1005.93 1005.06 1004.51 1004.30 1004.44 1004.83 1005.37 1005.93 1006.43 1006.79 1007.00 1007.09 1007.11 1007.15 1007.28 1007.54 1007.97 1008.54 1009.21 1009.93 1010.63 1011.25 1011.75 1012.12 1012.38 1012.53 1012.62 1012.69
1008.57 1008.12 1007.71 1007.43 1007.36 1007.52 1007.90 1008.43 1008.98 1009.42 1009.64 1009.55 1009.13 1008.41 1007.48 1006.47 1005.55 1004.83 1004.41 1004.33 1004.55 1005.02 1005.62 1006.24 1006.79 1007.19 1007.43 1007.54 1007.56 1007.59 1007.68 1007.91 1008.29 1008.81 1009.45 1010.15 1010.84 1011.47 1012.00 1012.42 1012.73 1012.94 1013.10 1013.22
1009.32 1008.78 1008.24 1007.79 1007.50 1007.42 1007.54 1007.81 1008.13 1008.39 1008.49 1008.36 1007.96 1007.32 1006.53 1005.69 1004.95 1004.40 1004.13 1004.17 1004.50 1005.05 1005.73 1006.42 1007.04 1007.52 1007.84 1008.02 1008.10 1008.17 1008.29 1008.51 1008.87 1009.36 1009.95 1010.60 1011.26 1011.87 1012.40 1012.83 1013.17 1013.43 1013.64 1013.81
1010.19 1009.56 1008.89 1008.27 1007.76 1007.42 1007.25 1007.22 1007.27 1007.31 1007.25 1007.03 1006.62 1006.05 1005.37 1004.69 1004.11 1003.72 1003.60 1003.77 1004.21 1004.85 1005.61 1006.39 1007.10 1007.69 1008.12 1008.42 1008.62 1008.78 1008.97 1009.23 1009.60 1010.07 1010.62 1011.22 1011.82 1012.39 1012.89 1013.32 1013.66 1013.95 1014.19 1014.41
1010.96 1010.26 1009.49 1008.70 1007.99 1007.40 1006.95 1006.64 1006.41 1006.21 1005.97 1005.64 1005.20 1004.66 1004.07 1003.51 1003.07 1002.83 1002.84 1003.12 1003.65 1004.38 1005.22 1006.10 1006.92 1007.63 1008.22 1008.67 1009.02 1009.32 1009.62 1009.96 1010.36 1010.83 1011.35 1011.90 1012.45 1012.96 1013.42 1013.81 1014.15 1014.44 1014.71 1014.96
1011.43 1010.68 1009.83 1008.93 1008.05 1007.26 1006.58 1006.02 1005.55 1005.13 1004.72 1004.27 1003.78 1003.25 1002.72 1002.25 1001.92 1001.80 1001.91 1002.28 1002.89 1003.69 1004.61 1005.58 1006.51 1007.37 1008.10 1008.73 1009.25 1009.71 1010.14 1010.58 1011.04 1011.53 1012.04 1012.56 1013.06 1013.51 1013.92 1014.28 1014.60 1014.89 1015.17 1015.44
1011.49 1010.71 1009.80 1008.83 1007.86 1006.93 1006.09 1005.35 1004.70 1004.11 1003.55 1003.01 1002.46 1001.92 1001.42 1001.02 1000.78 1000.73 1000.92 1001.36 1002.03 1002.89 1003.87 1004.92 1005.96 1006.93 1007.82 1008.61 1009.30 1009.92 1010.49 1011.03 1011.57 1012.10 1012.61 1013.11 1013.57 1013.98 1014.35 1014.68 1014.98 1015.27 1015.55 1015.85
1011.14 1010.33 1009.41 1008.42 1007.41 1006.43 1005.51 1004.67 1003.91 1003.21 1002.56 1001.94 1001.35 1000.80 1000.32 999.95 999.75 999.75 999.99 1000.48 1001.18 1002.08 1003.11 1004.22 1005.33 1006.42 1007.43 1008.35 1009.19 1009.95 1010.64 1011.29 1011.90 1012.47 1013.01 1013.50 1013.95 1014.34 1014.69 1015.00 1015.29 1015.58 1015.87 1016.17
1010.51 1009.69 1008.77 1007.80 1006.81 1005.84 1004.92 1004.07 1003.27 1002.53 1001.83 1001.17 1000.54 999.97 999.48 999.13 998.94 998.97 999.22 999.72 1000.44 1001.36 1002.42 1003.56 1004.74 1005.90 1007.00 1008.02 1008.97 1009.84 1010.63 1011.36 1012.04 1012.66 1013.22 1013.73 1014.18 1014.58 1014.93 1015.24 1015.54 1015.83 1016.13 1016.45
1009.83 1008.98 1008.08 1007.15 1006.23 1005.32 1004.46 1003.65 1002.88 1002.14 1001.43 1000.75 1000.09 999.49 998.98 998.60 998.40 998.41 998.66 999.15 999.86 1000.78 1001.85 1003.02 1004.22 1005.43 1006.59 1007.68 1008.70 1009.64 1010.50 1011.29 1012.01 1012.67 1013.27 1013.81 1014.29 1014.70 1015.07 1015.41 1015.73 1016.05 1016.37 1016.71
1009.29 1008.42 1007.53 1006.66 1005.82 1005.01 1004.25 1003.52 1002.81 1002.11 1001.41 1000.71 1000.03 999.38 998.81 998.38 998.12 998.09 998.29 998.75 999.44 1000.35 1001.41 1002.58 1003.81 1005.04 1006.23 1007.36 1008.42 1009.39 1010.29 1011.11 1011.87 1012.56 1013.19 1013.76 1014.27 1014.73 1015.14 1015.52 1015.88 1016.24 1016.59 1016.95
1009.01 1008.11 1007.25 1006.43 1005.68 1004.99 1004.34 1003.72 1003.10 1002.45 1001.76 1001.04 1000.31 999.59 998.94 998.41 998.07 997.95 998.08 998.49 999.14 1000.02 1001.07 1002.24 1003.48 1004.72 1005.93 1007.07 1008.15 1009.13 1010.04 1010.87 1011.64 1012.35 1013.01 1013.61 1014.17 1014.68 1015.15 1015.59 1016.00 1016.40 1016.80 1017.19
1008.99 1008.06 1007.22 1006.47 1005.82 1005.25 1004.73 1004.22 1003.68 1003.08 1002.41 1001.66 1000.86 1000.04 999.27 998.63 998.16 997.93 997.97 998.30 998.90 999.74 1000.78 1001.95 1003.19 1004.45 1005.67 1006.82 1007.89 1008.88 1009.78 1010.61 1011.38 1012.09 1012.77 1013.40 1014.00 1014.56 1015.10 1015.60 1016.08 1016.54 1016.99 1017.42
1009.06 1008.13 1007.32 1006.65 1006.11 1005.67 1005.28 1004.89 1004.44 1003.89 1003.22 1002.43 1001.55 1000.62 999.72 998.93 998.32 997.96 997.89 998.13 998.67 999.47 1000.50 1001.67 1002.93 1004.19 1005.43 1006.59 1007.66 1008.64 1009.52 1010.34 1011.09 1011.81 1012.49 1013.14 1013.78 1014.39 1014.98 1015.56 1016.10 1016.63 1017.14 1017.62
1009.00 1008.09 1007.35 1006.78 1006.36 1006.06 1005.81 1005.55 1005.19 1004.70 1004.03 1003.21 1002.24 1001.20 1000.16 999.22 998.46 997.97 997.78 997.93 998.41 999.19 1000.20 1001.38 1002.65 1003.94 1005.19 1006.37 1007.44 1008.41 1009.28 1010.08 1010.81 1011.51 1012.19 1012.85 1013.52 1014.17 1014.82 1015.45 1016.07 1016.66 1017.22 1017.75
1008.55 1007.70 1007.05 1006.61 1006.34 1006.20 1006.11 1005.98 1005.73 1005.30 1004.66 1003.82 1002.79 1001.66 1000.50 999.43 998.55 997.93 997.64 997.71 998.14 998.88 999.89 1001.08 1002.37 1003.68 1004.96 1006.15 1007.23 1008.20 1009.05 1009.83 1010.54 1011.22 1011.88 1012.55 1013.23 1013.91 1014.60 1015.28 1015.95 1016.60 1017.22 1017.79
Thickness
5835 5830 5825 5830 5835 5833 5830 5825 5821 5826 5837 5831 5824 5824 5828 5831 5828 5825 5822 5821 5818 5817 5820 5818 5815 5813 5809 5805 5802 5799 5797 5795 5793 5791 5790 5787 5786 5785 5784 5783 5780 5778 5776 5775
5824 5821 5834 5839 5837 5832 5828 5823 5821 5827 5834 5828 5823 5823 5832 5832 5828 5828 5825 5822 5821 5820 5818 5816 5815 5813 5810 5806 5803 5800 5797 5796 5794 5792 5790 5788 5786 5786 5785 5783 5779 5777 5776 5775
5818 5829 5837 5831 5827 5824 5825 5823 5822 5820 5826 5831 5823 5818 5824 5831 5833 5831 5830 5829 5827 5824 5820 5817 5815 5813 5811 5808 5805 5803 5799 5797 5794 5793 5791 5789 5785 5784 5783 5780 5779 5777 5776 5774
5823 5833 5829 5825 5824 5825 5818 5831 5826 5821 5817 5818 5819 5806 5820 5827 5827 5828 5829 5830 5828 5827 5825 5821 5817 5814 5812 5811 5809 5805 5800 5797 5794 5792 5790 5787 5783 5781 5780 5780 5779 5777 5775 5773
5818 5825 5822 5818 5824 5827 5823 5831 5826 5822 5819 5815 5821 5811 5819 5828 5822 5827 5831 5832 5832 5831 5828 5824 5821 5818 5816 5814 5811 5807 5802 5797 5795 5793 5790 5786 5784 5783 5783 5781 5777 5775 5775 5773
5823 5831 5829 5827 5831 5831 5829 5824 5821 5821 5821 5801 5812 5808 5808 5827 5825 5830 5834 5834 5833 5833 5831 5827 5824 5820 5817 5815 5812 5808 5801 5797 5795 5792 5790 5786 5783 5781 5779 5777 5776 5775 5776 5774
5808 5818 5828 5831 5821 5824 5823 5810 5798 5795 5797 5800 5815 5807 5810 5829 5834 5834 5834 5835 5836 5835 5832 5827 5823 5819 5816 5814 5811 5807 5802 5797 5795 5792 5790 5787 5784 5781 5777 5776 5775 5773 5774 5773
5796 5799 5817 5823 5819 5814 5817 5815 5794 5782 5788 5802 5806 5802 5817 5833 5836 5838 5839 5839 5837 5834 5833 5829 5825 5821 5818 5815 5811 5808 5802 5797 5795 5792 5789 5787 5784 5783 5781 5777 5776 5773 5772 5772
5800 5799 5818 5822 5825 5821 5810 5811 5822 5808 5800 5793 5800 5808 5818 5831 5830 5832 5834 5834 5833 5833 5832 5830 5827 5824 5820 5816 5812 5809 5803 5798 5795 5792 5789 5785 5783 5781 5780 5777 5774 5774 5772 5771
5807 5793 5809 5816 5819 5817 5819 5817 5810 5801 5779 5778 5790 5798 5806 5813 5820 5826 5828 5829 5830 5832 5831 5829 5826 5824 5821 5818 5813 5809 5804 5799 5796 5793 5789 5787 5783 5780 5778 5776 5773 5771 5769 5768
5807 5792 5798 5805 5801 5803 5804 5804 5803 5802 5799 5783 5779 5795 5821 5817 5821 5822 5825 5828 5828 5829 5829 5827 5825 5823 5821 5817 5813 5807 5803 5798 5795 5792 5789 5786 5783 5780 5778 5775 5772 5770 5768 5765
5799 5796 5788 5797 5810 5813 5809 5806 5803 5789 5785 5789 5787 5795 5825 5824 5826 5824 5823 5824 5826 5826 5827 5826 5824 5820 5817 5814 5810 5805 5802 5798 5794 5791 5787 5783 5780 5778 5775 5773 5771 5769 5766 5764
5792 5785 5771 5778 5790 5798 5798 5802 5805 5804 5796 5790 5785 5793 5821 5821 5820 5820 5819 5819 5820 5820 5822 5822 5819 5815 5812 5809 5806 5803 5799 5796 5794 5789 5785 5781 5778 5775 5772 5771 5769 5767 5764 5762
5788 5784 5777 5773 5783 5791 5788 5793 5797 5795 5790 5788 5791 5795 5805 5809 5811 5812 5813 5814 5815 5815 5814 5815 5812 5809 5807 5804 5801 5798 5795 5793 5791 5787 5782 5778 5775 5773 5771 5769 5767 5764 5762 5760
5782 5775 5779 5785 5790 5791 5788 5788 5790 5788 5791 5788 5793 5794 5799 5804 5806 5806 5808 5809 5808 5808 5807 5807 5806 5803 5801 5798 5796 5794 5791 5789 5787 5782 5779 5776 5774 5771 5768 5765 5763 5761 5759 5758
5774 5769 5771 5771 5780 5782 5780 5785 5787 5786 5788 5789 5790 5791 5804 5806 5805 5801 5802 5802 5800 5801 5801 5802 5802 5800 5797 5794 5792 5790 5787 5785 5782 5778 5775 5773 5770 5767 5764 5762 5760 5758 5755 5753
5764 5759 5756 5762 5771 5769 5766 5781 5782 5783 5787 5787 5782 5790 5798 5795 5794 5795 5797 5797 5796 5797 5798 5798 5797 5796 5794 5792 5788 5785 5783 5781 5778 5774 5772 5769 5767 5764 5761 5759 5756 5753 5751 5748
5750 5749 5752 5756 5751 5738 5772 5790 5786 5781 5782 5787 5786 5789 5790 5790 5792 5794 5795 5794 5793 5794 5794 5794 5794 5792 5792 5790 5787 5783 5780 5777 5773 5770 5768 5766 5763 5760 5758 5754 5751 5748 5746 5743
5752 5742 5744 5746 5744 5751 5767 5775 5777 5771 5770 5781 5780 5782 5786 5788 5787 5788 5791 5791 5791 5791 5791 5791 5791 5790 5788 5785 5782 5778 5775 5772 5769 5766 5763 5762 5759 5756 5753 5749 5747 5744 5740 5738
5742 5739 5737 5736 5731 5735 5759 5771 5777 5769 5757 5774 5775 5774 5776 5776 5771 5777 5784 5784 5785 5785 5785 5784 5785 5783 5780 5778 5776 5771 5768 5765 5763 5762 5760 5757 5754 5751 5748 5745 5742 5739 5736 5733
5725 5724 5726 5728 5728 5744 5755 5763 5763 5743 5749 5764 5768 5768 5768 5765 5767 5773 5776 5775 5775 5776 5777 5777 5776 5774 5772 5771 5769 5764 5762 5759 5759 5758 5755 5752 5749 5746 5743 5740 5736 5732 5729 5726
5721 5721 5719 5722 5719 5730 5746 5750 5744 5744 5752 5755 5757 5760 5760 5760 5763 5765 5765 5765 5766 5766 5767 5768 5767 5765 5765 5764 5762 5759 5756 5756 5754 5751 5749 5746 5743 5741 5739 5733 5729 5726 5722 5719
5716 5720 5724 5724 5725 5731 5737 5738 5740 5743 5742 5744 5748 5751 5751 5751 5753 5756 5756 5757 5757 5757 5758 5759 5758 5757 5756 5756 5755 5752 5750 5749 5747 5744 5741 5738 5736 5733 5730 5726 5723 5719 5716 5714
5707 5710 5711 5712 5720 5724 5727 5729 5731 5733 5734 5737 5740 5742 5744 5744 5746 5747 5747 5748 5748 5748 5749 5751 5750 5748 5748 5749 5747 5745 5743 5741 5738 5735 5733 5730 5728 5725 5723 5720 5717 5714 5711 5707
5696 5698 5700 5700 5708 5711 5715 5717 5720 5723 5726 5729 5731 5734 5735 5736 5737 5738 5738 5738 5738 5739 5741 5742 5740 5740 5740 5740 5739 5738 5736 5733 5730 5728 5726 5723 5722 5720 5714 5711 5707 5705 5701 5698
5690 5689 5689 5695 5701 5700 5704 5709 5712 5712 5714 5717 5719 5721 5725 5728 5728 5729 5730 5730 5730 5730 5732 5732 5732 5732 5732 5732 5731 5730 5729 5725 5722 5720 5718 5717 5715 5711 5708 5703 5698 5691 5687 5683